TimeCDT,TemperatureF,Dew PointF,Humidity,Sea Level PressureIn,VisibilityMPH,Wind Direction,Wind SpeedMPH,Gust SpeedMPH,PrecipitationIn,Events,Conditions,WindDirDegrees,DateUTC
12:15 AM,68.9,47.3,46,30.05,10.0,SSW,15.0,-,N/A,,Clear,210,2013-10-24 05:15:00
12:35 AM,67.1,47.7,50,30.05,10.0,SSW,12.7,-,N/A,,Clear,210,2013-10-24 05:35:00
12:55 AM,65.3,48.2,54,30.05,10.0,SSW,12.7,-,N/A,,Clear,210,2013-10-24 05:55:00
1:15 AM,63.5,48.7,59,30.06,10.0,SSW,10.4,-,N/A,,Clear,210,2013-10-24 06:15:00
1:35 AM,62.6,48.6,60,30.06,10.0,SW,9.2,-,N/A,,Clear,220,2013-10-24 06:35:00
1:55 AM,61.2,49.1,65,30.07,10.0,SW,9.2,-,N/A,,Clear,220,2013-10-24 06:55:00
2:15 AM,60.3,49.1,67,30.07,10.0,SSW,10.4,-,N/A,,Clear,210,2013-10-24 07:15:00
2:35 AM,59.5,49.1,68,30.08,10.0,SW,10.4,-,N/A,,Clear,220,2013-10-24 07:35:00
2:55 AM,58.8,49.1,70,30.08,10.0,SW,8.1,-,N/A,,Clear,220,2013-10-24 07:55:00
3:15 AM,57.4,49.1,74,30.08,10.0,SW,6.9,-,N/A,,Clear,220,2013-10-24 08:15:00
3:35 AM,57.0,48.6,73,30.10,10.0,NW,8.1,-,N/A,,Clear,310,2013-10-24 08:35:00
3:55 AM,55.4,48.6,78,30.10,10.0,Calm,Calm,-,N/A,,Clear,0,2013-10-24 08:55:00
4:15 AM,54.7,48.2,79,30.10,10.0,Calm,Calm,-,N/A,,Clear,0,2013-10-24 09:15:00
4:35 AM,53.2,47.3,80,30.10,10.0,SSW,4.6,-,N/A,,Clear,200,2013-10-24 09:35:00
4:55 AM,53.1,47.3,81,30.10,10.0,SSW,5.8,-,N/A,,Clear,200,2013-10-24 09:55:00
5:15 AM,52.9,47.3,81,30.10,10.0,SSW,4.6,-,N/A,,Clear,200,2013-10-24 10:15:00
5:35 AM,53.8,46.6,77,30.11,10.0,Calm,Calm,-,N/A,,Clear,0,2013-10-24 10:35:00
5:55 AM,53.6,46.8,78,30.12,10.0,Calm,Calm,-,N/A,,Clear,0,2013-10-24 10:55:00
6:15 AM,52.2,46.9,82,30.12,10.0,Calm,Calm,-,N/A,,Clear,0,2013-10-24 11:15:00
6:35 AM,50.7,46.4,85,30.13,10.0,Calm,Calm,-,N/A,,Clear,0,2013-10-24 11:35:00
6:55 AM,50.4,46.6,87,30.14,10.0,Calm,Calm,-,N/A,,Clear,0,2013-10-24 11:55:00
7:15 AM,49.8,46.4,88,30.16,10.0,Calm,Calm,-,N/A,,Clear,0,2013-10-24 12:15:00
7:35 AM,50.0,46.2,87,30.17,10.0,Calm,Calm,-,N/A,,Clear,0,2013-10-24 12:35:00
7:55 AM,50.2,46.0,86,30.17,10.0,Calm,Calm,-,N/A,,Clear,0,2013-10-24 12:55:00
8:15 AM,50.2,45.9,85,30.18,10.0,Calm,Calm,-,N/A,,Clear,0,2013-10-24 13:15:00
8:35 AM,52.7,48.4,85,30.19,10.0,Calm,Calm,-,N/A,,Clear,0,2013-10-24 13:35:00
8:55 AM,55.0,49.6,82,30.20,10.0,Calm,Calm,-,N/A,,Clear,0,2013-10-24 13:55:00
9:15 AM,58.3,52.3,81,30.21,10.0,North,4.6,-,N/A,,Clear,10,2013-10-24 14:15:00
9:35 AM,62.8,53.6,72,30.22,10.0,NE,6.9,-,N/A,,Clear,40,2013-10-24 14:35:00
9:55 AM,65.1,51.1,60,30.23,10.0,NE,13.8,-,N/A,,Clear,40,2013-10-24 14:55:00
10:15 AM,66.4,50.2,56,30.24,10.0,NE,11.5,-,N/A,,Clear,40,2013-10-24 15:15:00
10:35 AM,66.0,49.6,55,30.25,10.0,NE,12.7,18.4,N/A,,Clear,50,2013-10-24 15:35:00
10:55 AM,66.4,48.0,52,30.25,10.0,NNE,15.0,21.9,N/A,,Clear,30,2013-10-24 15:55:00
11:15 AM,66.2,47.7,51,30.26,10.0,NNE,16.1,23.0,N/A,,Clear,30,2013-10-24 16:15:00
11:35 AM,66.2,47.5,51,30.26,10.0,NNE,13.8,20.7,N/A,,Clear,30,2013-10-24 16:35:00
11:55 AM,66.2,47.1,50,30.27,10.0,NNE,13.8,21.9,N/A,,Clear,30,2013-10-24 16:55:00
12:15 PM,66.7,47.1,49,30.27,10.0,NNE,15.0,-,N/A,,Clear,20,2013-10-24 17:15:00
12:35 PM,67.8,48.0,49,30.27,10.0,NE,13.8,17.3,N/A,,Clear,40,2013-10-24 17:35:00
12:55 PM,67.8,48.0,49,30.27,10.0,NNE,12.7,16.1,N/A,,Clear,30,2013-10-24 17:55:00
1:15 PM,68.4,48.2,48,30.26,10.0,NE,10.4,19.6,N/A,,Clear,40,2013-10-24 18:15:00
1:35 PM,69.8,47.5,45,30.25,10.0,NNE,12.7,18.4,N/A,,Clear,30,2013-10-24 18:35:00
1:55 PM,69.4,47.1,45,30.25,10.0,North,12.7,19.6,N/A,,Clear,10,2013-10-24 18:55:00
2:15 PM,70.2,47.1,44,30.25,10.0,NNE,8.1,18.4,N/A,,Clear,20,2013-10-24 19:15:00
2:35 PM,70.7,46.2,42,30.24,10.0,NNE,11.5,19.6,N/A,,Clear,20,2013-10-24 19:35:00
2:55 PM,71.6,45.5,39,30.24,10.0,NNE,11.5,17.3,N/A,,Clear,20,2013-10-24 19:55:00
3:15 PM,70.9,45.5,40,30.24,10.0,NNE,12.7,-,N/A,,Clear,20,2013-10-24 20:15:00
3:35 PM,70.7,43.7,38,30.24,10.0,NNE,11.5,-,N/A,,Clear,20,2013-10-24 20:35:00
3:55 PM,70.9,43.7,38,30.24,10.0,NNE,10.4,18.4,N/A,,Clear,20,2013-10-24 20:55:00
4:15 PM,70.7,42.3,36,30.24,10.0,NNE,9.2,18.4,N/A,,Clear,20,2013-10-24 21:15:00
4:35 PM,70.3,42.3,36,30.24,10.0,NNE,4.6,17.3,N/A,,Clear,30,2013-10-24 21:35:00
4:55 PM,70.2,43.2,38,30.24,5.0,NNE,10.4,-,N/A,,Haze,30,2013-10-24 21:55:00
5:15 PM,69.3,43.5,39,30.24,10.0,NNE,11.5,-,N/A,,Clear,30,2013-10-24 22:15:00
5:35 PM,68.7,43.5,40,30.24,10.0,NNE,11.5,-,N/A,,Clear,30,2013-10-24 22:35:00
5:55 PM,67.1,43.7,43,30.24,10.0,NNE,11.5,-,N/A,,Clear,20,2013-10-24 22:55:00
6:15 PM,65.5,43.3,45,30.25,10.0,NE,9.2,-,N/A,,Clear,40,2013-10-24 23:15:00
6:35 PM,63.7,43.2,47,30.25,10.0,NNE,9.2,-,N/A,,Clear,20,2013-10-24 23:35:00
6:55 PM,61.3,43.5,52,30.26,10.0,NNE,6.9,-,N/A,,Clear,20,2013-10-24 23:55:00
7:15 PM,60.4,42.6,52,30.27,10.0,NNE,8.1,-,N/A,,Clear,30,2013-10-25 00:15:00
7:35 PM,59.4,41.9,52,30.27,10.0,NNE,8.1,-,N/A,,Clear,30,2013-10-25 00:35:00
7:55 PM,59.0,41.4,52,30.27,10.0,NNE,9.2,-,N/A,,Clear,30,2013-10-25 00:55:00
8:15 PM,57.9,41.9,55,30.28,10.0,NNE,8.1,-,N/A,,Clear,30,2013-10-25 01:15:00
8:35 PM,57.2,41.4,55,30.29,10.0,NE,9.2,-,N/A,,Clear,40,2013-10-25 01:35:00
8:55 PM,56.5,41.4,57,30.29,10.0,NNE,8.1,-,N/A,,Clear,30,2013-10-25 01:55:00
9:15 PM,56.3,40.5,55,30.30,10.0,NE,10.4,17.3,N/A,,Clear,40,2013-10-25 02:15:00
9:35 PM,55.6,39.2,54,30.30,10.0,NE,11.5,17.3,N/A,,Clear,40,2013-10-25 02:35:00
9:55 PM,54.7,38.8,55,30.31,10.0,NE,10.4,-,N/A,,Clear,40,2013-10-25 02:55:00
10:15 PM,54.5,38.3,54,30.31,10.0,NE,12.7,17.3,N/A,,Clear,40,2013-10-25 03:15:00
10:35 PM,53.6,38.1,56,30.32,10.0,NE,11.5,-,N/A,,Clear,40,2013-10-25 03:35:00
10:55 PM,52.9,37.8,56,30.32,10.0,NE,11.5,-,N/A,,Clear,50,2013-10-25 03:55:00
11:15 PM,52.7,37.8,57,30.32,10.0,NE,10.4,-,N/A,,Clear,40,2013-10-25 04:15:00
11:35 PM,51.6,37.9,60,30.33,10.0,NE,9.2,-,N/A,,Clear,40,2013-10-25 04:35:00
11:55 PM,51.1,37.8,60,30.33,10.0,NE,6.9,-,N/A,,Clear,40,2013-10-25 04:55:00